Regional Weather Roundup
Issued by NWS Upton, NY

Current Version | Previous Version | Text Only | Print | Product List | Glossary On
Versions: 1 2 3 4 5 6 7 8 9 10 11 12 13 14 15 16 17 18 19 20 21 22 23 24 25 26 27 28 29 30 31 32 33 34 35 36 37 38 39 40 41 42 43 44 45 46 47 48 49 50
000 ASUS41 KOKX 200105 RWROKX REGIONAL WEATHER ROUNDUP NATIONAL WEATHER SERVICE NEW YORK NY 900 PM EDT SUN OCT 19 2014 NOTE: "FAIR" INDICATES FEW OR NO CLOUDS BELOW 12,000 FEET WITH NO SIGNIFICANT WEATHER AND/OR OBSTRUCTIONS TO VISIBILITY. NYZ071-072-176-178-NJZ106-104-200200- NEW YORK CITY METRO AREA CITY SKY/WX TMP DP RH WIND PRES REMARKS CENTRAL PARK CLEAR 46 27 47 VRB7 30.08R LAGUARDIA APRT PTCLDY 47 29 49 NW13G25 30.05R KENNEDY INTL PTCLDY 47 25 42 NW16 30.06R NEWARK/LIBERTY PTCLDY 46 27 47 NW7 30.07R BRNX BOT. GARD N/A N/A N/A N/A N8 30.05R TETERBORO CLEAR 44 26 49 NW8 30.05R $$ NYZ177-179-078>081-200200- LONG ISLAND NEW YORK CITY SKY/WX TMP DP RH WIND PRES REMARKS FARMINGDALE CLEAR 46 29 51 NW9 30.03R ISLIP PTCLDY 46 28 49 NW15G21 30.01R SHIRLEY NOT AVBL WESTHAMPTON CLEAR 46 27 47 NW15G22 30.02R MONTAUK POINT N/A 48 32 53 NW16G28 29.99R $$ NYZ052-065-067-200200- HUDSON VALLEY CITY SKY/WX TMP DP RH WIND PRES REMARKS WHITE PLAINS CLEAR 43 26 51 NW10 30.03R NEWBURGH CLEAR 41 27 56 NW8 30.05R MONTGOMERY CLEAR 37 26 64 CALM 30.05R POUGHKEEPSIE CLEAR 42 26 53 NW8 30.05R ALBANY PTCLDY 41 26 55 NW8 30.04R $$ NJZ001-105-106-008-010-013-015-019>022-104-200200- NEW JERSEY CITY SKY/WX TMP DP RH WIND PRES REMARKS NEWARK/LIBERTY PTCLDY 46 27 47 NW7 30.07R TETERBORO CLEAR 44 26 49 NW8 30.05R CALDWELL CLEAR 43 25 49 NW5 30.07R MORRISTOWN CLEAR 43 28 56 N5 30.07R SOMERVILLE CLEAR 37 31 78 CALM 30.05R SUSSEX CLEAR 43 26 51 VRB5 30.06R ANDOVER N/A 40 26 57 N3 30.06R TRENTON CLEAR 45 27 49 NW3 30.06R MILLVILLE CLEAR 39 35 86 CALM 30.07R ATLANTIC CITY CLEAR 42 32 67 NW5 30.07R WRIGHTSTOWN FAIR 40 33 76 CALM 30.05R TOMS RIVER CLEAR 39 30 70 CALM 30.07R BELMAR CLEAR 43 27 52 NW6 30.06R $$ PAZ047>061-062-071-200200- EASTERN PENNSYLVANIA CITY SKY/WX TMP DP RH WIND PRES REMARKS PHILADELPHIA CLEAR 52 27 38 NW5 30.08R ALLENTOWN CLEAR 42 27 55 CALM 30.06R SCRANTON CLEAR 39 28 64 N5 30.06R $$ CTZ002-004>006-009-010-012-RIZ004-006-007-MAZ004-011-015-200200- SOUTHERN NEW ENGLAND IN CT CITY SKY/WX TMP DP RH WIND PRES REMARKS BRADLEY INTL CLEAR 41 26 55 NW9 29.99R HARTFORD CLEAR 43 26 51 VRB7G17 30.01R DANBURY CLEAR 41 25 53 W6 30.03R WTRBRY/OXFORD FAIR 39 23 52 CALM 30.01R BRIDGEPORT CLEAR 44 29 55 NW5 30.03R MERIDEN CLEAR 42 26 53 NW8 30.02R NEW HAVEN PTCLDY 47 27 45 NW13G18 30.02R CHESTER FAIR 41 28 60 NW10G18 29.99R GROTON CLEAR 43 28 55 NW10G21 29.98R WILLIMANTIC CLEAR 43 26 51 NW8 29.98R IN RI CITY SKY/WX TMP DP RH WIND PRES REMARKS PROVIDENCE MOCLDY 46 30 53 NW10 29.94R BLOCK ISLAND PTCLDY 46 28 49 NW17G25 29.96R WESTERLY CLEAR 44 27 51 VRB7 29.98R IN MA CITY SKY/WX TMP DP RH WIND PRES REMARKS BOSTON CLOUDY 47 28 47 NW15 29.92R WORCESTER PTCLDY 40 29 64 W10 29.92R WCI 33 WESTFIELD CLEAR 42 25 50 NW9 29.99R PROVINCETOWN CLOUDY 48 28 46 NW21G26 29.90R NANTUCKET MOCLDY 50 31 48 NW21G31 29.88R $$ ANZ330-335-338-340-345-350-353-355-200200- COASTAL MARINE OBSERVATIONS STATION/POSITION TIME SKY/WX TEMP WIND PRES VSBY WAVE AIR SEA DIR/SP/G HT/PER (UTC) (F) (DEG/KT/KT) (MB) (MI) (FT/S) NY HARB ENTRANCE NOT AVBL 4S FIRE IS 0100 64 N/A 3/13 20S FIRE ISLAND 0100 51 64 330/ 21/ 25 1016.3 5/ 5 23SW MTP 0100 N/A 5/ 4 HUDSON CANYON 0100 53 66 330/ 21/ 27 1015.3 8/ 7 EXECUTION ROCKS 0100 49 64 310/ 16/ 23 N/A WESTERN LI SOUND 0100 49 320/ 16/ 21 N/A 1/ 3 CENTRAL LI SOUND 0000 48 65 310/ 21/ 27 N/A 3/ 4 EASTERN LI SOUND 0000 49 64 310/ 19/ 27 N/A ROBBINS REEF 0100 47 330/ 13/ 17 1016.6 $$ >>>>>>>>>>>>>>>>>>>>>>>>>>>> KEY <<<<<<<<<<<<<<<<<<<<<<<<<<< > < > SKY/WX - SKY CONDITION/PRESENT WEATHER < > TMP - TEMPERATURE IN FAHRENHEIT < > DP - DEWPOINT IN FAHRENHEIT < > RH - RELATIVE HUMIDITY IN PERCENT < > WIND - DIRECTION AND SPEED IN MPH < > PRES - MEAN SEA LEVEL PRESSURE IN INCHES OF HG < > WCI - WIND CHILL INDEX < > VSB - VISIBILITY IN MILES < > HX - HEAT INDEX < > TC - TEMPERATURE IN CELSIUS < > VRB - VARIABLE WIND DIRECTION < > < >>>>>>>>>>>>>>>>>>>>>>>>>>>> KEY <<<<<<<<<<<<<<<<<<<<<<<<<<<

USA.gov is the U.S. government's official web portal to all federal, state and local government web resources and services.